| time (UTC) | temp C | wind direction | speed KPH | gust KPH | rain 1hr cm | rain 24hr cm | rain mn cm | humidity % | barometer mb |
| 20260906014725 | 15 | 278 | 6.4 | 12.9 | 0.00 | 0.00 | 0.00 | ||
| 20260906014317 | 15 | 287 | 8.0 | 12.9 | 0.00 | 0.00 | 0.00 | ||
| 20260906013915 | 15 | 278 | 11.3 | 17.7 | 0.00 | 0.00 | 0.00 | ||
| 20260906013514 | 15 | 273 | 8.0 | 14.5 | 0.00 | 0.00 | 0.00 | ||
| 20260906013113 | 15 | 272 | 9.7 | 16.1 | 0.00 | 0.00 | 0.00 | ||
| 20260906012710 | 15 | 271 | 9.7 | 14.5 | 0.00 | 0.00 | 0.00 | ||
| 20260906012309 | 16 | 269 | 11.3 | 19.3 | 0.00 | 0.00 | 0.00 | ||
| 20260906011907 | 15 | 272 | 9.7 | 14.5 | 0.00 | 0.00 | 0.00 | ||
| 20260906011506 | 15 | 257 | 6.4 | 11.3 | 0.00 | 0.00 | 0.00 | ||
| 20260906011104 | 16 | 262 | 8.0 | 11.3 | 0.00 | 0.00 | 0.00 | ||
| 20260906010702 | 17 | 256 | 6.4 | 9.7 | 0.00 | 0.00 | 0.00 | ||
| 20260906010254 | 16 | 255 | 6.4 | 11.3 | 0.00 | 0.00 | 0.00 | ||
| 20260906005852 | 17 | 250 | 6.4 | 14.5 | 0.00 | 0.00 | 0.00 | ||
| 20260906005450 | 18 | 227 | 4.8 | 8.0 | 0.00 | 0.00 | 0.00 | ||
| 20260906005049 | 17 | 228 | 4.8 | 8.0 | 0.00 | 0.00 | 0.00 | ||
| 20260906004648 | 17 | 231 | 6.4 | 9.7 | 0.00 | 0.00 | 0.00 | ||
| 20260906004247 | 18 | 231 | 4.8 | 8.0 | 0.00 | 0.00 | 0.00 | ||
| 20260906003844 | 18 | 234 | 4.8 | 8.0 | 0.00 | 0.00 | 0.00 | ||
| 20260906003442 | 17 | 225 | 3.2 | 4.8 | 0.00 | 0.00 | 0.00 | ||
| 20260906002639 | 17 | 225 | 3.2 | 6.4 | 0.00 | 0.00 | 0.00 | ||
| 20260906002231 | 18 | 225 | 3.2 | 11.3 | 0.00 | 0.00 | 0.00 | ||
| 20260906001828 | 17 | 225 | 1.6 | 4.8 | 0.00 | 0.00 | 0.00 | ||
| 20260906001427 | 18 | 225 | 3.2 | 6.4 | 0.00 | 0.00 | 0.00 | ||
| 20260906001026 | 18 | 248 | 3.2 | 4.8 | 0.00 | 0.00 | 0.00 | ||
| 20260906000625 | 18 | 248 | 3.2 | 4.8 | 0.00 | 0.00 | 0.00 | ||
| 20260906000303 | 18 | 248 | 4.8 | 6.4 | 0.00 | 0.00 | 0.00 | ||
| 20260906000222 | 18 | 248 | 4.8 | 6.4 | 0.00 | 0.00 | 0.00 | ||
| 20260905235821 | 17 | 248 | 3.2 | 6.4 | 0.00 | 0.00 | 0.00 | ||
| 20260905235420 | 17 | 253 | 3.2 | 4.8 | 0.00 | 0.00 | 0.00 | ||
| 20260905235019 | 17 | 247 | 8.0 | 12.9 | 0.00 | 0.00 | 0.00 | ||
| 20260905234616 | 17 | 256 | 6.4 | 9.7 | 0.00 | 0.00 | 0.00 | ||
| 20260905234208 | 17 | 253 | 4.8 | 8.0 | 0.00 | 0.00 | 0.00 | ||
| 20260905233405 | 15 | 288 | 6.4 | 12.9 | 0.00 | 0.00 | 0.00 | ||
| 20260905233003 | 15 | 269 | 9.7 | 16.1 | 0.00 | 0.00 | 0.00 | ||
| 20260905232601 | 15 | 289 | 9.7 | 16.1 | 0.00 | 0.00 | 0.00 | ||
| 20260905232200 | 16 | 290 | 8.0 | 11.3 | 0.00 | 0.00 | 0.00 | ||
| 20260905231758 | 16 | 298 | 8.0 | 12.9 | 0.00 | 0.00 | 0.00 | ||
| 20260905231357 | 16 | 291 | 8.0 | 14.5 | 0.00 | 0.00 | 0.00 | ||
| 20260905230955 | 16 | 301 | 6.4 | 11.3 | 0.00 | 0.00 | 0.00 | ||
| 20260905230553 | 16 | 303 | 8.0 | 14.5 | 0.00 | 0.00 | 0.00 | ||
| 20260905230145 | 16 | 290 | 9.7 | 14.5 | 0.00 | 0.00 | 0.00 | ||
| 20260905225743 | 16 | 298 | 6.4 | 11.3 | 0.00 | 0.00 | 0.00 | ||
| 20260905225341 | 16 | 281 | 8.0 | 12.9 | 0.00 | 0.00 | 0.00 | ||
| 20260905224940 | 16 | 301 | 6.4 | 14.5 | 0.00 | 0.00 | 0.00 | ||
| 20260905224538 | 16 | 306 | 6.4 | 14.5 | 0.00 | 0.00 | 0.00 | ||
| 20260905224137 | 16 | 294 | 6.4 | 11.3 | 0.00 | 0.00 | 0.00 | ||
| 20260905223734 | 16 | 299 | 6.4 | 14.5 | 0.00 | 0.00 | 0.00 | ||
| 20260905223333 | 16 | 292 | 9.7 | 17.7 | 0.00 | 0.00 | 0.00 | ||
| 20260905223032 | 16 | 302 | 9.7 | 19.3 | 0.00 | 0.00 | 0.00 | ||
| 20260905222932 | 16 | 302 | 9.7 | 19.3 | 0.00 | 0.00 | 0.00 | ||
| 20260905222531 | 16 | 301 | 9.7 | 14.5 | 0.00 | 0.00 | 0.00 | ||
| 20260905222121 | 16 | 299 | 8.0 | 14.5 | 0.00 | 0.00 | 0.00 | ||
| 20260905221719 | 16 | 303 | 6.4 | 11.3 | 0.00 | 0.00 | 0.00 | ||
| 20260905221319 | 16 | 308 | 8.0 | 14.5 | 0.00 | 0.00 | 0.00 | ||
| 20260905220918 | 17 | 315 | 4.8 | 9.7 | 0.00 | 0.00 | 0.00 | ||
| 20260905220516 | 16 | 298 | 6.4 | 14.5 | 0.00 | 0.00 | 0.00 | ||
| 20260905220114 | 16 | 333 | 8.0 | 19.3 | 0.00 | 0.00 | 0.00 | ||
| 20260905215712 | 16 | 322 | 11.3 | 29.0 | 0.00 | 0.00 | 0.00 | ||
| 20260905215311 | 16 | 328 | 14.5 | 22.5 | 0.00 | 0.00 | 0.00 | ||
| 20260905214910 | 17 | 323 | 9.7 | 17.7 | 0.00 | 0.00 | 0.00 | ||
| 20260905214507 | 17 | 319 | 9.7 | 20.9 | 0.00 | 0.00 | 0.00 | ||
| 20260905214059 | 17 | 324 | 11.3 | 17.7 | 0.00 | 0.00 | 0.00 | ||
| 20260905213657 | 17 | 320 | 12.9 | 20.9 | 0.00 | 0.00 | 0.00 | ||
| 20260905213256 | 18 | 314 | 11.3 | 22.5 | 0.00 | 0.00 | 0.00 | ||
| 20260905212854 | 18 | 282 | 9.7 | 16.1 | 0.00 | 0.00 | 0.00 | ||
| 20260905212452 | 18 | 275 | 9.7 | 17.7 | 0.00 | 0.00 | 0.00 | ||
| 20260905212051 | 18 | 275 | 12.9 | 22.5 | 0.00 | 0.00 | 0.00 | ||
| 20260905211649 | 18 | 267 | 12.9 | 25.7 | 0.00 | 0.00 | 0.00 | ||
| 20260905211247 | 18 | 268 | 12.9 | 17.7 | 0.00 | 0.00 | 0.00 | ||
| 20260905210846 | 18 | 265 | 11.3 | 14.5 | 0.00 | 0.00 | 0.00 | ||
| 20260905210444 | 18 | 272 | 11.3 | 16.1 | 0.00 | 0.00 | 0.00 | ||
| 20260905210036 | 18 | 271 | 11.3 | 17.7 | 0.00 | 0.00 | 0.00 | ||
| 20260905205635 | 18 | 265 | 9.7 | 12.9 | 0.00 | 0.00 | 0.00 | ||
| 20260905205232 | 18 | 271 | 9.7 | 14.5 | 0.00 | 0.00 | 0.00 | ||
| 20260905204831 | 18 | 268 | 9.7 | 12.9 | 0.00 | 0.00 | 0.00 | ||
| 20260905204429 | 18 | 281 | 11.3 | 19.3 | 0.00 | 0.00 | 0.00 | ||
| 20260905204028 | 18 | 268 | 11.3 | 16.1 | 0.00 | 0.00 | 0.00 | ||
| 20260905203625 | 18 | 275 | 11.3 | 17.7 | 0.00 | 0.00 | 0.00 | ||
| 20260905203224 | 18 | 266 | 11.3 | 16.1 | 0.00 | 0.00 | 0.00 | ||
| 20260905202823 | 18 | 276 | 11.3 | 17.7 | 0.00 | 0.00 | 0.00 | ||
| 20260905202421 | 18 | 268 | 9.7 | 14.5 | 0.00 | 0.00 | 0.00 | ||
| 20260905202012 | 18 | 271 | 9.7 | 14.5 | 0.00 | 0.00 | 0.00 | ||
| 20260905201610 | 18 | 269 | 11.3 | 16.1 | 0.00 | 0.00 | 0.00 | ||
| 20260905201209 | 18 | 265 | 9.7 | 14.5 | 0.00 | 0.00 | 0.00 | ||
| 20260905200808 | 19 | 260 | 11.3 | 14.5 | 0.00 | 0.00 | 0.00 | ||
| 20260905200405 | 19 | 258 | 9.7 | 12.9 | 0.00 | 0.00 | 0.00 | ||
| 20260905200003 | 20 | 252 | 9.7 | 16.1 | 0.00 | 0.00 | 0.00 | ||
| 20260905195601 | 20 | 268 | 8.0 | 12.9 | 0.00 | 0.00 | 0.00 | ||
| 20260905195201 | 20 | 260 | 11.3 | 12.9 | 0.00 | 0.00 | 0.00 | ||
| 20260905194759 | 20 | 250 | 9.7 | 16.1 | 0.00 | 0.00 | 0.00 | ||
| 20260905194356 | 20 | 250 | 11.3 | 14.5 | 0.00 | 0.00 | 0.00 | ||
| 20260905193948 | 20 | 251 | 9.7 | 14.5 | 0.00 | 0.00 | 0.00 | ||
| 20260905193546 | 20 | 259 | 9.7 | 14.5 | 0.00 | 0.00 | 0.00 | ||
| 20260905193145 | 20 | 255 | 9.7 | 12.9 | 0.00 | 0.00 | 0.00 | ||
| 20260905192743 | 20 | 251 | 9.7 | 16.1 | 0.00 | 0.00 | 0.00 | ||
| 20260905192341 | 20 | 258 | 8.0 | 14.5 | 0.00 | 0.00 | 0.00 | ||
| 20260905191940 | 20 | 251 | 8.0 | 14.5 | 0.00 | 0.00 | 0.00 | ||
| 20260905191538 | 20 | 262 | 9.7 | 14.5 | 0.00 | 0.00 | 0.00 | ||
| 20260905191136 | 20 | 261 | 9.7 | 14.5 | 0.00 | 0.00 | 0.00 | ||
| 20260905190735 | 20 | 261 | 8.0 | 12.9 | 0.00 | 0.00 | 0.00 | ||
| 20260905190333 | 20 | 262 | 11.3 | 16.1 | 0.00 | 0.00 | 0.00 | ||
| 20260905185925 | 20 | 260 | 9.7 | 16.1 | 0.00 | 0.00 | 0.00 | ||
| 20260905185522 | 20 | 255 | 8.0 | 14.5 | 0.00 | 0.00 | 0.00 | ||
| 20260905185121 | 20 | 262 | 11.3 | 14.5 | 0.00 | 0.00 | 0.00 | ||
| 20260905184720 | 20 | 269 | 11.3 | 16.1 | 0.00 | 0.00 | 0.00 | ||
| 20260905184318 | 20 | 272 | 9.7 | 14.5 | 0.00 | 0.00 | 0.00 | ||
| 20260905183917 | 20 | 270 | 12.9 | 16.1 | 0.00 | 0.00 | 0.00 | ||
| 20260905183514 | 20 | 278 | 12.9 | 19.3 | 0.00 | 0.00 | 0.00 | ||
| 20260905183113 | 20 | 272 | 11.3 | 16.1 | 0.00 | 0.00 | 0.00 | ||
| 20260905182712 | 20 | 277 | 11.3 | 14.5 | 0.00 | 0.00 | 0.00 | ||
| 20260905182310 | 20 | 271 | 9.7 | 16.1 | 0.00 | 0.00 | 0.00 | ||
| 20260905181901 | 20 | 268 | 11.3 | 19.3 | 0.00 | 0.00 | 0.00 | ||
| 20260905181459 | 20 | 277 | 16.1 | 24.1 | 0.00 | 0.00 | 0.00 | ||
| 20260905181059 | 20 | 270 | 16.1 | 22.5 | 0.00 | 0.00 | 0.00 | ||
| 20260905180657 | 20 | 270 | 14.5 | 22.5 | 0.00 | 0.00 | 0.00 | ||
| 20260905180254 | 20 | 269 | 14.5 | 16.1 | 0.00 | 0.00 | 0.00 | ||
| 20260905175853 | 20 | 272 | 14.5 | 22.5 | 0.00 | 0.00 | 0.00 | ||
| 20260905175452 | 20 | 272 | 11.3 | 20.9 | 0.00 | 0.00 | 0.00 | ||
| 20260905175051 | 20 | 268 | 12.9 | 19.3 | 0.00 | 0.00 | 0.00 | ||
| 20260905174649 | 20 | 277 | 11.3 | 16.1 | 0.00 | 0.00 | 0.00 | ||
| 20260905174247 | 20 | 282 | 9.7 | 16.1 | 0.00 | 0.00 | 0.00 | ||
| 20260905173839 | 20 | 274 | 12.9 | 25.7 | 0.00 | 0.00 | 0.00 | ||
| 20260905173437 | 20 | 269 | 14.5 | 19.3 | 0.00 | 0.00 | 0.00 | ||
| 20260905173036 | 20 | 270 | 11.3 | 19.3 | 0.00 | 0.00 | 0.00 | ||
| 20260905172634 | 20 | 271 | 11.3 | 17.7 | 0.00 | 0.00 | 0.00 | ||
| 20260905172232 | 20 | 270 | 12.9 | 19.3 | 0.00 | 0.00 | 0.00 | ||
| 20260905171831 | 20 | 270 | 11.3 | 22.5 | 0.00 | 0.00 | 0.00 | ||
| 20260905171429 | 20 | 277 | 12.9 | 20.9 | 0.00 | 0.00 | 0.00 | ||
| 20260905171027 | 20 | 269 | 11.3 | 16.1 | 0.00 | 0.00 | 0.00 | ||
| 20260905170626 | 21 | 270 | 11.3 | 14.5 | 0.00 | 0.00 | 0.00 | ||
| 20260905170224 | 21 | 272 | 8.0 | 14.5 | 0.00 | 0.00 | 0.00 | ||
| 20260905165816 | 21 | 277 | 12.9 | 19.3 | 0.00 | 0.00 | 0.00 | ||
| 20260905165413 | 21 | 272 | 12.9 | 19.3 | 0.00 | 0.00 | 0.00 | ||
| 20260905165012 | 21 | 283 | 11.3 | 19.3 | 0.00 | 0.00 | 0.00 | ||
| 20260905164611 | 21 | 283 | 12.9 | 16.1 | 0.00 | 0.00 | 0.00 | ||
| 20260905164210 | 21 | 281 | 12.9 | 19.3 | 0.00 | 0.00 | 0.00 | ||
| 20260905163807 | 21 | 279 | 16.1 | 20.9 | 0.00 | 0.00 | 0.00 | ||
| 20260905163406 | 21 | 268 | 12.9 | 16.1 | 0.00 | 0.00 | 0.00 | ||
| 20260905163005 | 22 | 279 | 14.5 | 27.4 | 0.00 | 0.00 | 0.00 | ||
| 20260905162604 | 21 | 271 | 14.5 | 20.9 | 0.00 | 0.00 | 0.00 | ||
| 20260905162202 | 22 | 271 | 19.3 | 27.4 | 0.00 | 0.00 | 0.00 | ||
| 20260905161753 | 22 | 269 | 12.9 | 24.1 | 0.00 | 0.00 | 0.00 | ||
| 20260905161351 | 23 | 269 | 17.7 | 25.7 | 0.00 | 0.00 | 0.00 | ||
| 20260905160950 | 22 | 274 | 17.7 | 25.7 | 0.00 | 0.00 | 0.00 | ||
| 20260905160549 | 22 | 271 | 14.5 | 27.4 | 0.00 | 0.00 | 0.00 | ||
| 20260905160146 | 22 | 266 | 14.5 | 27.4 | 0.00 | 0.00 | 0.00 | ||
| 20260905155745 | 22 | 261 | 16.1 | 22.5 | 0.00 | 0.00 | 0.00 | ||
| 20260905155343 | 22 | 258 | 16.1 | 20.9 | 0.00 | 0.00 | 0.00 | ||
| 20260905154942 | 22 | 254 | 16.1 | 27.4 | 0.00 | 0.00 | 0.00 | ||
| 20260905154540 | 22 | 256 | 16.1 | 25.7 | 0.00 | 0.00 | 0.00 | ||
| 20260905154138 | 22 | 267 | 16.1 | 27.4 | 0.00 | 0.00 | 0.00 | ||
| 20260905153730 | 22 | 276 | 12.9 | 20.9 | 0.00 | 0.00 | 0.00 | ||
| 20260905153328 | 22 | 274 | 17.7 | 25.7 | 0.00 | 0.00 | 0.00 | ||
| 20260905152926 | 22 | 276 | 19.3 | 29.0 | 0.00 | 0.00 | 0.00 | ||
| 20260905152525 | 22 | 255 | 16.1 | 22.5 | 0.00 | 0.00 | 0.00 | ||
| 20260905152123 | 22 | 259 | 17.7 | 27.4 | 0.00 | 0.00 | 0.00 | ||
| 20260905151722 | 22 | 246 | 20.9 | 29.0 | 0.00 | 0.00 | 0.00 | ||
| 20260905151321 | 22 | 251 | 14.5 | 24.1 | 0.00 | 0.00 | 0.00 | ||
| 20260905150918 | 22 | 267 | 22.5 | 46.7 | 0.00 | 0.00 | 0.00 | ||
| 20260905150517 | 22 | 268 | 14.5 | 22.5 | 0.00 | 0.00 | 0.00 | ||
| 20260905150116 | 22 | 271 | 19.3 | 30.6 | 0.00 | 0.00 | 0.00 | ||
| 20260905145708 | 22 | 269 | 20.9 | 30.6 | 0.00 | 0.00 | 0.00 | ||
| 20260905145306 | 22 | 258 | 14.5 | 22.5 | 0.00 | 0.00 | 0.00 | ||
| 20260905144904 | 22 | 265 | 16.1 | 22.5 | 0.00 | 0.00 | 0.00 | ||
| 20260905144503 | 22 | 263 | 17.7 | 30.6 | 0.00 | 0.00 | 0.00 | ||
| 20260905144101 | 23 | 262 | 19.3 | 32.2 | 0.00 | 0.00 | 0.00 | ||
| 20260905143659 | 23 | 256 | 22.5 | 32.2 | 0.00 | 0.00 | 0.00 | ||
| 20260905143257 | 23 | 267 | 19.3 | 29.0 | 0.00 | 0.00 | 0.00 | ||
| 20260905142856 | 23 | 268 | 17.7 | 27.4 | 0.00 | 0.00 | 0.00 | ||
| 20260905142455 | 23 | 277 | 24.1 | 35.4 | 0.00 | 0.00 | 0.00 | ||
| 20260905142052 | 23 | 263 | 12.9 | 19.3 | 0.00 | 0.00 | 0.00 | ||
| 20260905141644 | 23 | 243 | 17.7 | 22.5 | 0.00 | 0.00 | 0.00 | ||
| 20260905141242 | 23 | 255 | 16.1 | 30.6 | 0.00 | 0.00 | 0.00 | ||
| 20260905140841 | 23 | 262 | 16.1 | 22.5 | 0.00 | 0.00 | 0.00 | ||
| 20260905140440 | 23 | 237 | 14.5 | 20.9 | 0.00 | 0.00 | 0.00 | ||
| 20260905140037 | 23 | 241 | 16.1 | 29.0 | 0.00 | 0.00 | 0.00 | ||
| 20260905135636 | 23 | 271 | 17.7 | 25.7 | 0.00 | 0.00 | 0.00 | ||
| 20260905135234 | 23 | 262 | 19.3 | 30.6 | 0.00 | 0.00 | 0.00 | ||
| 20260905134833 | 23 | 238 | 17.7 | 27.4 | 0.00 | 0.00 | 0.00 | ||
| 20260905134431 | 23 | 260 | 16.1 | 25.7 | 0.00 | 0.00 | 0.00 | ||
| 20260905134029 | 23 | 255 | 22.5 | 33.8 | 0.00 | 0.00 | 0.00 | ||
| 20260905133621 | 23 | 275 | 19.3 | 33.8 | 0.00 | 0.00 | 0.00 | ||
| 20260905133219 | 23 | 272 | 11.3 | 20.9 | 0.00 | 0.00 | 0.00 | ||
| 20260905132817 | 22 | 261 | 14.5 | 20.9 | 0.00 | 0.00 | 0.00 | ||
| 20260905132416 | 22 | 262 | 16.1 | 24.1 | 0.00 | 0.00 | 0.00 | ||
| 20260905132014 | 22 | 267 | 19.3 | 25.7 | 0.00 | 0.00 | 0.00 | ||
| 20260905131613 | 23 | 230 | 19.3 | 29.0 | 0.00 | 0.00 | 0.00 | ||
| 20260905131210 | 23 | 240 | 12.9 | 25.7 | 0.00 | 0.00 | 0.00 | ||
| 20260905130809 | 23 | 241 | 11.3 | 17.7 | 0.00 | 0.00 | 0.00 | ||
| 20260905130407 | 23 | 218 | 14.5 | 22.5 | 0.00 | 0.00 | 0.00 | ||
| 20260905130006 | 23 | 226 | 14.5 | 27.4 | 0.00 | 0.00 | 0.00 | ||
| 20260905125646 | 23 | 226 | 14.5 | 24.1 | 0.00 | 0.00 | 0.00 | ||
| 20260905125558 | 23 | 226 | 14.5 | 24.1 | 0.00 | 0.00 | 0.00 | ||
| 20260905125155 | 23 | 261 | 14.5 | 20.9 | 0.00 | 0.00 | 0.00 | ||
| 20260905124353 | 22 | 238 | 16.1 | 22.5 | 0.00 | 0.00 | 0.00 | ||
| 20260905123951 | 22 | 255 | 14.5 | 19.3 | 0.00 | 0.00 | 0.00 | ||
| 20260905123548 | 22 | 244 | 11.3 | 19.3 | 0.00 | 0.00 | 0.00 | ||
| 20260905123146 | 23 | 248 | 17.7 | 29.0 | 0.00 | 0.00 | 0.00 | ||
| 20260905122745 | 23 | 266 | 14.5 | 20.9 | 0.00 | 0.00 | 0.00 | ||
| 20260905122344 | 23 | 233 | 12.9 | 22.5 | 0.00 | 0.00 | 0.00 | ||
| 20260905121941 | 22 | 245 | 14.5 | 25.7 | 0.00 | 0.00 | 0.00 | ||
| 20260905121533 | 22 | 251 | 16.1 | 25.7 | 0.00 | 0.00 | 0.00 | ||
| 20260905121131 | 22 | 230 | 16.1 | 22.5 | 0.00 | 0.00 | 0.00 | ||
| 20260905120730 | 22 | 256 | 12.9 | 20.9 | 0.00 | 0.00 | 0.00 | ||
| 20260905120328 | 22 | 260 | 14.5 | 20.9 | 0.00 | 0.00 | 0.00 | ||
| 20260905115926 | 22 | 227 | 14.5 | 29.0 | 0.00 | 0.00 | 0.00 | ||
| 20260905115525 | 22 | 227 | 16.1 | 25.7 | 0.00 | 0.00 | 0.00 | ||
| 20260905115122 | 22 | 238 | 9.7 | 16.1 | 0.00 | 0.00 | 0.00 | ||
| 20260905114721 | 22 | 241 | 16.1 | 32.2 | 0.00 | 0.00 | 0.00 | ||
| 20260905114319 | 22 | 216 | 11.3 | 19.3 | 0.00 | 0.00 | 0.00 | ||
| 20260905113917 | 22 | 255 | 12.9 | 24.1 | 0.00 | 0.00 | 0.00 | ||
| 20260905113509 | 22 | 213 | 16.1 | 30.6 | 0.00 | 0.00 | 0.00 | ||
| 20260905113107 | 21 | 245 | 16.1 | 22.5 | 0.00 | 0.00 | 0.00 | ||
| 20260905112705 | 21 | 249 | 14.5 | 24.1 | 0.00 | 0.00 | 0.00 | ||
| 20260905112306 | 21 | 245 | 14.5 | 20.9 | 0.00 | 0.00 | 0.00 | ||
| 20260905111902 | 22 | 219 | 11.3 | 25.7 | 0.00 | 0.00 | 0.00 | ||
| 20260905111501 | 21 | 245 | 12.9 | 16.1 | 0.00 | 0.00 | 0.00 | ||
| 20260905111058 | 21 | 241 | 14.5 | 27.4 | 0.00 | 0.00 | 0.00 | ||
| 20260905110657 | 21 | 243 | 12.9 | 19.3 | 0.00 | 0.00 | 0.00 | ||
| 20260905110256 | 22 | 223 | 11.3 | 20.9 | 0.00 | 0.00 | 0.00 | ||
| 20260905105855 | 21 | 219 | 12.9 | 27.4 | 0.00 | 0.00 | 0.00 | ||
| 20260905105445 | 21 | 212 | 14.5 | 22.5 | 0.00 | 0.00 | 0.00 | ||
| 20260905105044 | 21 | 226 | 16.1 | 29.0 | 0.00 | 0.00 | 0.00 | ||
| 20260905104643 | 21 | 246 | 19.3 | 30.6 | 0.00 | 0.00 | 0.00 | ||
| 20260905104242 | 21 | 248 | 16.1 | 19.3 | 0.00 | 0.00 | 0.00 | ||
| 20260905103840 | 21 | 237 | 12.9 | 27.4 | 0.00 | 0.00 | 0.00 | ||
| 20260905103438 | 21 | 246 | 17.7 | 27.4 | 0.00 | 0.00 | 0.00 | ||
| 20260905103036 | 21 | 228 | 12.9 | 16.1 | 0.00 | 0.00 | 0.00 | ||
| 20260905102635 | 21 | 225 | 16.1 | 22.5 | 0.00 | 0.00 | 0.00 | ||
| 20260905102234 | 21 | 249 | 17.7 | 25.7 | 0.00 | 0.00 | 0.00 | ||
| 20260905101831 | 20 | 245 | 19.3 | 29.0 | 0.00 | 0.00 | 0.00 | ||
| 20260905101423 | 21 | 239 | 20.9 | 30.6 | 0.00 | 0.00 | 0.00 | ||
| 20260905101021 | 20 | 220 | 19.3 | 25.7 | 0.00 | 0.00 | 0.00 | ||
| 20260905100620 | 20 | 240 | 16.1 | 22.5 | 0.00 | 0.00 | 0.00 | ||
| 20260905100218 | 21 | 258 | 16.1 | 22.5 | 0.00 | 0.00 | 0.00 | ||
| 20260905095816 | 21 | 219 | 17.7 | 32.2 | 0.00 | 0.00 | 0.00 | ||
| 20260905095415 | 20 | 254 | 19.3 | 27.4 | 0.00 | 0.00 | 0.00 | ||
| 20260905095013 | 20 | 245 | 9.7 | 14.5 | 0.00 | 0.00 | 0.00 | ||
| 20260905094611 | 20 | 230 | 16.1 | 25.7 | 0.00 | 0.00 | 0.00 | ||
| 20260905094210 | 20 | 230 | 17.7 | 27.4 | 0.00 | 0.00 | 0.00 | ||
| 20260905093808 | 20 | 234 | 17.7 | 32.2 | 0.00 | 0.00 | 0.00 | ||
| 20260905093400 | 19 | 254 | 17.7 | 20.9 | 0.00 | 0.00 | 0.00 | ||
| 20260905092958 | 20 | 235 | 17.7 | 27.4 | 0.00 | 0.00 | 0.00 | ||
| 20260905092556 | 20 | 227 | 14.5 | 20.9 | 0.00 | 0.00 | 0.00 | ||
| 20260905092155 | 20 | 225 | 17.7 | 24.1 | 0.00 | 0.00 | 0.00 | ||
| 20260905091754 | 20 | 238 | 12.9 | 24.1 | 0.00 | 0.00 | 0.00 | ||
| 20260905091353 | 20 | 234 | 9.7 | 16.1 | 0.00 | 0.00 | 0.00 | ||
| 20260905090950 | 20 | 242 | 12.9 | 20.9 | 0.00 | 0.00 | 0.00 | ||
| 20260905090549 | 20 | 218 | 17.7 | 30.6 | 0.00 | 0.00 | 0.00 | ||
| 20260905090148 | 20 | 229 | 14.5 | 24.1 | 0.00 | 0.00 | 0.00 | ||
| 20260905085746 | 19 | 225 | 11.3 | 17.7 | 0.00 | 0.00 | 0.00 | ||
| 20260905085337 | 19 | 231 | 17.7 | 35.4 | 0.00 | 0.00 | 0.00 | ||
| 20260905084935 | 19 | 240 | 14.5 | 22.5 | 0.00 | 0.00 | 0.00 | ||
| 20260905084534 | 19 | 249 | 14.5 | 22.5 | 0.00 | 0.00 | 0.00 | ||
| 20260905084133 | 19 | 244 | 11.3 | 20.9 | 0.00 | 0.00 | 0.00 | ||
| 20260905083730 | 19 | 223 | 9.7 | 19.3 | 0.00 | 0.00 | 0.00 | ||
| 20260905083329 | 18 | 211 | 9.7 | 17.7 | 0.00 | 0.00 | 0.00 | ||
| 20260905082927 | 18 | 235 | 11.3 | 17.7 | 0.00 | 0.00 | 0.00 | ||
| 20260905082526 | 18 | 228 | 8.0 | 14.5 | 0.00 | 0.00 | 0.00 | ||
| 20260905082125 | 19 | 209 | 8.0 | 14.5 | 0.00 | 0.00 | 0.00 | ||
| 20260905081722 | 19 | 216 | 6.4 | 12.9 | 0.00 | 0.00 | 0.00 | ||
| 20260905081314 | 18 | 205 | 8.0 | 16.1 | 0.00 | 0.00 | 0.00 | ||
| 20260905080912 | 18 | 215 | 9.7 | 16.1 | 0.00 | 0.00 | 0.00 | ||
| 20260905080511 | 18 | 208 | 9.7 | 14.5 | 0.00 | 0.00 | 0.00 | ||
| 20260905080109 | 18 | 218 | 8.0 | 16.1 | 0.00 | 0.00 | 0.00 | ||
| 20260905075707 | 18 | 216 | 9.7 | 14.5 | 0.00 | 0.00 | 0.00 | ||
| 20260905075306 | 18 | 220 | 9.7 | 14.5 | 0.00 | 0.00 | 0.00 | ||
| 20260905074904 | 18 | 241 | 9.7 | 14.5 | 0.00 | 0.00 | 0.00 | ||
| 20260905074502 | 18 | 249 | 6.4 | 11.3 | 0.00 | 0.00 | 0.00 | ||
| 20260905074101 | 17 | 254 | 8.0 | 14.5 | 0.00 | 0.00 | 0.00 | ||
| 20260905073659 | 17 | 255 | 11.3 | 16.1 | 0.00 | 0.00 | 0.00 | ||
| 20260905073251 | 17 | 252 | 9.7 | 19.3 | 0.00 | 0.00 | 0.00 | ||
| 20260905072848 | 18 | 223 | 4.8 | 9.7 | 0.00 | 0.00 | 0.00 | ||
| 20260905072447 | 18 | 207 | 6.4 | 12.9 | 0.00 | 0.00 | 0.00 | ||
| 20260905072046 | 18 | 200 | 9.7 | 16.1 | 0.00 | 0.00 | 0.00 | ||
| 20260905071644 | 19 | 199 | 4.8 | 6.4 | 0.00 | 0.00 | 0.00 | ||
| 20260905071243 | 18 | 192 | 6.4 | 11.3 | 0.00 | 0.00 | 0.00 | ||
| 20260905070840 | 19 | 225 | 3.2 | 6.4 | 0.00 | 0.00 | 0.00 | ||
| 20260905070440 | 19 | 225 | 4.8 | 9.7 | 0.00 | 0.00 | 0.00 | ||
| 20260905070038 | 18 | 225 | 4.8 | 11.3 | 0.00 | 0.00 | 0.00 | ||
| 20260905065636 | 18 | 248 | 4.8 | 8.0 | 0.00 | 0.00 | 0.00 | ||
| 20260905065227 | 16 | 270 | 6.4 | 8.0 | 0.00 | 0.00 | 0.00 | ||
| 20260905064825 | 16 | 270 | 8.0 | 11.3 | 0.00 | 0.00 | 0.00 | ||
| 20260905064424 | 16 | 247 | 6.4 | 8.0 | 0.00 | 0.00 | 0.00 | ||
| 20260905064023 | 17 | 244 | 4.8 | 12.9 | 0.00 | 0.00 | 0.00 | ||
| 20260905063620 | 17 | 250 | 8.0 | 9.7 | 0.00 | 0.00 | 0.00 | ||
| 20260905063219 | 16 | 252 | 6.4 | 9.7 | 0.00 | 0.00 | 0.00 | ||
| 20260905062818 | 16 | 262 | 6.4 | 9.7 | 0.00 | 0.00 | 0.00 | ||
| 20260905062417 | 17 | 268 | 8.0 | 11.3 | 0.00 | 0.00 | 0.00 | ||
| 20260905062014 | 16 | 270 | 6.4 | 9.7 | 0.00 | 0.00 | 0.00 | ||
| 20260905061612 | 16 | 251 | 6.4 | 9.7 | 0.00 | 0.00 | 0.00 | ||
| 20260905060802 | 16 | 247 | 8.0 | 12.9 | 0.00 | 0.00 | 0.00 | ||
| 20260905060402 | 16 | 239 | 14.5 | 22.5 | 0.00 | 0.00 | 0.00 | ||
| 20260905055959 | 15 | 256 | 9.7 | 16.1 | 0.00 | 0.00 | 0.00 | ||
| 20260905055557 | 15 | 257 | 9.7 | 14.5 | 0.00 | 0.00 | 0.00 | ||
| 20260905055156 | 15 | 265 | 11.3 | 16.1 | 0.00 | 0.00 | 0.00 | ||
| 20260905054754 | 16 | 246 | 9.7 | 17.7 | 0.00 | 0.00 | 0.00 | ||
| 20260905054352 | 17 | 243 | 8.0 | 12.9 | 0.00 | 0.00 | 0.00 | ||
| 20260905053951 | 16 | 259 | 11.3 | 16.1 | 0.00 | 0.00 | 0.00 | ||
| 20260905053549 | 16 | 264 | 11.3 | 14.5 | 0.00 | 0.00 | 0.00 | ||
| 20260905053141 | 16 | 267 | 9.7 | 14.5 | 0.00 | 0.00 | 0.00 | ||
| 20260905052738 | 16 | 266 | 8.0 | 14.5 | 0.00 | 0.00 | 0.00 | ||
| 20260905052337 | 17 | 261 | 9.7 | 17.7 | 0.00 | 0.00 | 0.00 | ||
| 20260905051936 | 19 | 250 | 8.0 | 12.9 | 0.00 | 0.00 | 0.00 | ||
| 20260905051535 | 18 | 253 | 9.7 | 12.9 | 0.00 | 0.00 | 0.00 | ||
| 20260905051132 | 18 | 249 | 9.7 | 14.5 | 0.00 | 0.00 | 0.00 | ||
| 20260905050731 | 18 | 207 | 4.8 | 9.7 | 0.00 | 0.00 | 0.00 | ||
| 20260905050330 | 17 | 202 | 4.8 | 6.4 | 0.00 | 0.00 | 0.00 | ||
| 20260905045929 | 17 | 202 | 4.8 | 8.0 | 0.00 | 0.00 | 0.00 | ||
| 20260905045527 | 17 | 202 | 3.2 | 6.4 | 0.00 | 0.00 | 0.00 | ||
| 20260905044715 | 16 | 135 | 1.6 | 4.8 | 0.00 | 0.00 | 0.00 | ||
| 20260905044314 | 16 | 225 | 1.6 | 4.8 | 0.00 | 0.00 | 0.00 | ||
| 20260905043913 | 17 | 225 | 4.8 | 8.0 | 0.00 | 0.00 | 0.00 | ||
| 20260905043509 | 18 | 209 | 4.8 | 6.4 | 0.00 | 0.00 | 0.00 | ||
| 20260905043109 | 17 | 202 | 0.0 | 1.6 | 0.00 | 0.00 | 0.00 | ||
| 20260905042706 | 17 | 202 | 0.0 | 0.0 | 0.00 | 0.00 | 0.00 | ||
| 20260905042307 | 18 | 202 | 0.0 | 1.6 | 0.00 | 0.00 | 0.00 | ||
| 20260905041903 | 18 | 202 | 0.0 | 3.2 | 0.00 | 0.00 | 0.00 | ||
| 20260905041501 | 20 | 158 | 3.2 | 4.8 | 0.00 | 0.00 | 0.00 | ||
| 20260905041053 | 17 | 135 | 0.0 | 1.6 | 0.00 | 0.00 | 0.00 | ||
| 20260905040651 | 17 | 135 | 0.0 | 3.2 | 0.00 | 0.00 | 0.00 | ||
| 20260905040249 | 18 | 162 | 3.2 | 4.8 | 0.00 | 0.00 | 0.00 | ||
| 20260905035848 | 17 | 180 | 0.0 | 0.0 | 0.00 | 0.00 | 0.00 | ||
| 20260905035446 | 17 | 180 | 0.0 | 1.6 | 0.00 | 0.00 | 0.00 | ||
| 20260905035045 | 17 | 193 | 3.2 | 4.8 | 0.00 | 0.00 | 0.00 | ||
| 20260905034643 | 18 | 212 | 4.8 | 6.4 | 0.00 | 0.00 | 0.00 | ||
| 20260905034241 | 20 | 202 | 4.8 | 9.7 | 0.00 | 0.00 | 0.00 | ||
| 20260905033840 | 20 | 199 | 3.2 | 4.8 | 0.00 | 0.00 | 0.00 | ||
| 20260905033438 | 20 | 180 | 3.2 | 6.4 | 0.00 | 0.00 | 0.00 | ||
| 20260905033030 | 19 | 180 | 1.6 | 3.2 | 0.00 | 0.00 | 0.00 | ||
| 20260905032627 | 20 | 180 | 1.6 | 3.2 | 0.00 | 0.00 | 0.00 | ||
| 20260905032226 | 20 | 180 | 1.6 | 3.2 | 0.00 | 0.00 | 0.00 | ||
| 20260905031825 | 20 | 180 | 3.2 | 4.8 | 0.00 | 0.00 | 0.00 | ||
| 20260905031424 | 19 | 135 | 1.6 | 4.8 | 0.00 | 0.00 | 0.00 | ||
| 20260905031021 | 18 | 135 | 0.0 | 3.2 | 0.00 | 0.00 | 0.00 | ||
| 20260905030620 | 18 | 135 | 0.0 | 1.6 | 0.00 | 0.00 | 0.00 | ||
| 20260905030219 | 20 | 146 | 3.2 | 4.8 | 0.00 | 0.00 | 0.00 | ||
| 20260905025818 | 20 | 180 | 1.6 | 3.2 | 0.00 | 0.00 | 0.00 | ||
| 20260905025414 | 19 | 180 | 0.0 | 1.6 | 0.00 | 0.00 | 0.00 | ||
| 20260905025006 | 19 | 180 | 0.0 | 1.6 | 0.00 | 0.00 | 0.00 | ||
| 20260905024605 | 19 | 180 | 0.0 | 3.2 | 0.00 | 0.00 | 0.00 | ||
| 20260905024204 | 20 | 180 | 0.0 | 0.0 | 0.00 | 0.00 | 0.00 | ||
| 20260905023803 | 20 | 180 | 1.6 | 3.2 | 0.00 | 0.00 | 0.00 | ||
| 20260905023400 | 20 | 180 | 1.6 | 3.2 | 0.00 | 0.00 | 0.00 | ||
| 20260905022959 | 20 | 180 | 1.6 | 3.2 | 0.00 | 0.00 | 0.00 | ||
| 20260905022557 | 20 | 214 | 3.2 | 6.4 | 0.00 | 0.00 | 0.00 | ||
| 20260905022156 | 20 | 315 | 0.0 | 0.0 | 0.00 | 0.00 | 0.00 | ||
| 20260905021754 | 20 | 315 | 3.2 | 6.4 | 0.00 | 0.00 | 0.00 | ||
| 20260905021352 | 20 | 312 | 3.2 | 9.7 | 0.00 | 0.00 | 0.00 | ||
| 20260905020944 | 20 | 21 | 1.6 | 3.2 | 0.00 | 0.00 | 0.00 | ||
| 20260905020542 | 19 | 21 | 0.0 | 3.2 | 0.00 | 0.00 | 0.00 | ||
| 20260905020139 | 20 | 21 | 0.0 | 3.2 | 0.00 | 0.00 | 0.00 | ||
| 20260905015738 | 20 | 21 | 1.6 | 3.2 | 0.00 | 0.00 | 0.00 | ||
| 20260905015336 | 20 | 20 | 1.6 | 3.2 | 0.00 | 0.00 | 0.00 |